Bloomington, IN

2:51 PM EDT on October 23, 2019 (GMT -0400)
Monroe County

Weather History for KBMG - September, 2019

Change the Weather History Date:

Monday, September 16, 2019

  Actual Average Record
Temperature  
Mean Temperature 78 °F 66 °F  
Max Temperature 90 °F 78 °F 88 °F (2017)
Min Temperature 66 °F 53 °F 39 °F (2007)
Degree Days  
Heating Degree Days 0 2  
Month to date heating degree days 0 16  
Since 1 July heating degree days 0 23  
Cooling Degree Days 13 3  
Month to date cooling degree days 124 71  
Year to date cooling degree days 1096 888  
Growing Degree Days 28 (Base 50)    
Moisture  
Dew Point 66 °F    
Average Humidity 71    
Maximum Humidity 87    
Minimum Humidity 49    
Precipitation  
Precipitation T in 0.10 in 0.63 in (2016)
Month to date precipitation 0.87 1.76  
Year to date precipitation 37.09 34.95  
Sea Level Pressure  
Sea Level Pressure 30.04 in    
Wind  
Wind Speed 2 mph ()    
Max Wind Speed 7 mph    
Max Gust Speed -    
Visibility 10.0 miles    
Events Rain    
T = Trace of Precipitation, MM = Missing Value Source: Averaged Metar Reports

Daily Weather History Graph

Daily Weather History Graph

Search for Another Location

Airport or City:

Astronomy

Sep. 16, 2019 Rise Set
Actual Time 7:28 AM EDT 7:53 PM EDT
Civil Twilight 7:01 AM EDT 8:20 PM EDT
Nautical Twilight 6:30 AM EDT 8:51 PM EDT
Astronomical Twilight 5:57 AM EDT 9:23 PM EDT
Moon 9:28 PM EDT (9/16) 9:34 AM EDT (9/16)
Length of Visible Light 13h 18m
Length of Day
12h 25m
Waning Gibbous, 94% of the Moon is Illuminated
Sep 16
Waning Gibbous
Sep 21
Last Quarter
Sep 28
New
Oct 5
First Quarter
Oct 13
Full

Hourly Weather History & Observations

Time (EDT) Temp. Heat Index Dew Point Humidity Pressure Visibility Wind Dir Wind Speed Gust Speed Precip Events Conditions
12:53 AM 66.9 °F - 63.0 °F 87% 30.06 in 10.0 mi Calm Calm - N/A   Clear
1:53 AM 68.0 °F - 63.0 °F 84% 30.05 in 10.0 mi Calm Calm - N/A   Clear
2:53 AM 70.0 °F - 64.0 °F 81% 30.05 in 10.0 mi Calm Calm - N/A   Mostly Cloudy
3:53 AM 69.1 °F - 64.0 °F 84% 30.05 in 10.0 mi NNW 4.6 mph - 0.00 in Rain Light Rain
4:53 AM 70.0 °F - 64.9 °F 84% 30.04 in 10.0 mi South 3.5 mph - 0.00 in   Mostly Cloudy
5:53 AM 70.0 °F - 64.0 °F 81% 30.04 in 10.0 mi Calm Calm - 0.00 in   Mostly Cloudy
6:53 AM 68.0 °F - 62.1 °F 81% 30.05 in 10.0 mi Calm Calm - N/A   Clear
7:53 AM 71.1 °F - 62.1 °F 73% 30.06 in 10.0 mi Calm Calm - N/A   Clear
9:53 AM 78.1 °F - 66.0 °F 66% 30.08 in 10.0 mi WNW 3.5 mph - N/A   Scattered Clouds
12:53 PM 86.0 °F 90.1 °F 69.1 °F 57% 30.08 in 10.0 mi NNW 6.9 mph - N/A   Clear
1:53 PM 87.1 °F 91.3 °F 69.1 °F 55% 30.06 in 10.0 mi Variable 5.8 mph - N/A   Partly Cloudy
2:53 PM 88.0 °F 92.1 °F 69.1 °F 53% 30.04 in 10.0 mi WNW 6.9 mph - N/A   Clear
3:53 PM 88.0 °F 90.7 °F 66.9 °F 49% 30.03 in 10.0 mi NW 5.8 mph - N/A   Clear
4:53 PM 88.0 °F 91.4 °F 68.0 °F 51% 30.01 in 10.0 mi North 6.9 mph - N/A   Mostly Cloudy
5:53 PM 88.0 °F 91.4 °F 68.0 °F 51% 30.01 in 10.0 mi North 6.9 mph - N/A   Clear
6:53 PM 84.9 °F 88.2 °F 68.0 °F 57% 30.01 in 10.0 mi North 5.8 mph - N/A   Clear
7:53 PM 78.1 °F - 69.1 °F 74% 30.02 in 10.0 mi Calm Calm - N/A   Clear
8:53 PM 73.0 °F - 69.1 °F 87% 30.03 in 10.0 mi Calm Calm - N/A   Clear
9:53 PM 73.0 °F - 66.9 °F 81% 30.04 in 10.0 mi North 4.6 mph - N/A   Clear
10:53 PM 71.1 °F - 66.0 °F 84% 30.04 in 10.0 mi North 4.6 mph - N/A   Clear
11:53 PM 75.0 °F - 66.0 °F 73% 30.04 in 10.0 mi NNE 6.9 mph - N/A   Clear